www.pogodaiklimat.ru

Погода и климат >> Архив погоды >> Франция >> Мариньян


АРХИВ ПОГОДЫ в Мариньяне

Время (UTC), дата Ветер
(напр.,м/с)
 
Видим.   Явления Облачность Т
(С)
Тd
(С)
f
(%)
Тe
(С)
Тes
(С)
Комфортность P
(гПа)
Po
(гПа)
Тmin
(С)
Tmax
(С)
R
(мм)
R24
(мм)
S
(см)
16 17.08 Ю 3 24 км н/о +27.2 +20.8 68 +34 +34 очень
душно
1015.3 1011.6
17 17.08 Ю 3 17 км 8/8 360 м
[]
+25.1 +21.2 79 +32 +32 очень
душно
1015.4 1011.7
18 17.08 Ю 4
{8}
21 км 10/10 300 м
[]
+24.8 +21.1 80 +31 +31 очень
душно
1015.4 1011.7 +20.7 +29.5 0
19 17.08 Ю 1 18 км 10/10 540 м
[]
+24.7 +21.2 81 +31 +31 очень
душно
1015.5 1011.8
20 17.08 Ю 1 17 км 9/9 600 м
[]
+24.2 +21.1 83 +31 +31 очень
душно
1016.0 1012.3
21 17.08 В 3
{4}
20 км н/о +23.7 +21.0 85 +30 +30 очень
душно
1015.8 1012.1 0
22 17.08 ЮВ 1 17 км н/о +23.0 +19.8 82 +30 +30 очень
душно
1016.0 1012.3
23 17.08 ЮВ 2 15 км н/о +22.1 +20.0 88 +28 +28 душно 1016.0 1012.3
00 18.08 Ю 2
{3}
11 км н/о +21.9 +19.5 86 +27 +27 душно 1015.8 1012.1 0
01 18.08 ЮВ 1 9000 м н/о +21.5 +19.2 87 +26 +26 душно 1015.5 1011.8
02 18.08 В 1 10 км н/о +21.1 +19.0 88 +25 +25 комфорт 1015.2 1011.5
03 18.08 ЮВ 2
{3}
11 км н/о +20.5 +18.6 89 +25 +25 комфорт 1014.8 1011.1 0
04 18.08 Ю 1 17 км н/о +20.1 +17.7 86 +24 +24 комфорт 1014.6 1010.9
05 18.08 ЮВ 1 17 км н/о +19.4 +17.4 88 +23 +23 комфорт 1014.6 1010.8
06 18.08 В 5
{7}
28 км н/о +22.9 +18.0 74 +28 +28 душно 1014.6 1010.9 +19.2 +24.9 0
07 18.08 В 2 35 км н/о +25.0 +19.1 70 +30 +30 душно 1015.0 1011.3
08 18.08 ЮВ 3 45 км н/о +26.7 +19.3 64 +32 +32 очень
душно
1015.1 1011.4
09 18.08 ЮВ 6
{9}
19 км н/о +27.9 +19.4 60 +34 +34 очень
душно
1015.2 1011.6 0
10 18.08 ЮВ 3 40 км н/о +28.6 +19.5 58 +34 +34 очень
душно
1015.2 1011.6
11 18.08 ЮВ 4 35 км н/о +29.2 +18.6 53 +34 +34 очень
душно
1014.9 1011.3
12 18.08 Ю 6
{10}
35 км н/о +29.8 +19.2 53 +35 +35 очень
душно
1014.4 1010.8 0
13 18.08 ЮВ 4 19 км н/о +30.4 +19.4 52 +36 +36 очень
душно
1014.1 1010.5
14 18.08 Ю 4 30 км н/о +30.4 +17.5 46 +34 +34 очень
душно
1013.9 1010.3
15 18.08 Ю 8
{11}
29 км н/о +29.7 +18.2 50 +34 +34 очень
душно
1013.6 1010.0 0
16 18.08 Ю 4 27 км н/о +28.7 +17.6 51 +33 +33 очень
душно
1013.3 1009.7
17 18.08 ЮВ 3 35 км н/о +28.7 +15.2 44 +31 +31 жарко 1013.1 1009.5
18 18.08 Ю 4
{10}
45 км н/о +27.3 +16.0 50 +31 +31 душно 1013.5 1009.8 +22.9 +31.0 0
19 18.08 ЮЗ 1 35 км н/о +25.8 +16.1 55 +29 +29 душно 1013.7 1010.0
20 18.08 ЮВ 1 40 км н/о +24.4 +18.3 69 +29 +29 душно 1014.8 1011.1
21 18.08 ЮВ 3
{5}
40 км н/о +24.1 +18.3 70 +29 +29 душно 1015.9 1012.2 0
22 18.08 СВ 2 28 км н/о +22.9 +19.3 80 +29 +29 очень
душно
1015.8 1012.1
23 18.08 СВ 2 25 км н/о +22.7 +19.9 84 +29 +29 очень
душно
1016.1 1012.4
00 19.08 В 3
{4}
24 км н/о +21.7 +18.9 84 +27 +27 душно 1015.8 1012.1 0
01 19.08 В 2 18 км н/о +21.6 +18.6 83 +26 +26 душно 1015.6 1011.9
02 19.08 ЮВ 1 26 км н/о +21.7 +17.7 78 +26 +26 душно 1015.7 1012.0
03 19.08 В 2
{4}
26 км 9/9 600 м
[]
+21.7 +17.5 77 +26 +26 душно 1015.7 1012.0 0
04 19.08 СВ 1 27 км 9/6 600 м
[]
+21.3 +17.1 77 +25 +25 комфорт 1015.5 1011.8
05 19.08 В 1 20 км н/о +21.5 +17.7 79 +26 +26 душно 1015.7 1012.0
06 19.08 СВ 2
{3}
18 км н/о +22.8 +18.3 76 +28 +28 душно 1016.1 1012.4 +21.0 +27.2 0
07 19.08 СВ 1 18 км н/о +25.4 +18.6 66 +30 +30 душно 1016.3 1012.6
08 19.08 С 2 19 км н/о +25.9 +19.1 66 +31 +31 очень
душно
1016.5 1012.8
09 19.08 З 3
{5}
26 км н/о +26.8 +19.2 63 +32 +32 очень
душно
1016.8 1013.1 0
10 19.08 З 2 28 км н/о +28.0 +17.8 54 +32 +32 душно 1016.4 1012.7
11 19.08 З 2 27 км н/о +28.6 +18.4 54 +33 +33 очень
душно
1016.1 1012.5
12 19.08 З 4
{7}
19 км н/о +29.4 +19.4 55 +35 +35 очень
душно
1016.3 1012.7 0
13 19.08 Ю 3 28 км н/о +28.2 +20.2 62 +35 +35 очень
душно
1016.5 1012.9
14 19.08 ЮЗ 3 19 км 9/9
[]
+28.4 +20.7 63 +35 +36 очень
душно
1016.6 1013.0
15 19.08 З 6
{9}
24 км 9/0
[]
+27.5 +21.3 69 +35 +37 очень
душно
1016.7 1013.0 0
16 19.08 З 2 29 км 8/8
[]
+26.5 +20.8 71 +33 +34 очень
душно
1016.6 1012.9
17 19.08 З 2 30 км 9/1 720 м
[]
+26.1 +20.7 72 +33 +33 очень
душно
1016.7 1013.0
18 19.08 ЮЗ 3
{5}
29 км 10/0
[]
+25.9 +20.2 71 +32 +32 очень
душно
1016.9 1013.2 +22.9 +29.6 0
19 19.08 З 2 28 км 10/10
[]
+25.1 +20.6 76 +31 +31 очень
душно
1017.2 1013.5
20 19.08 ЮЗ 1 24 км 9/5 800 м
[]
+24.8 +20.1 75 +30 +30 душно 1018.1 1014.4
21 19.08 ЮВ 3
{4}
25 км 10/0
[]
+24.6 +20.1 76 +30 +30 очень
душно
1017.4 1013.7 0
22 19.08 З 1 22 км 9/9
[]
+24.3 +20.2 78 +30 +30 очень
душно
1017.9 1014.2
23 19.08 СЗ 1 20 км 10/4 420 м
[]
+24.3 +21.2 83 +31 +31 очень
душно
1017.7 1014.0
00 20.08 СВ 2
{5}
23 км 10/0
[]
+24.2 +20.1 78 +30 +30 очень
душно
1017.1 1013.4 0
01 20.08 ЮЗ 1 23 км 10/10
[]
+24.0 +19.9 78 +29 +29 душно 1016.8 1013.1
02 20.08 СЗ 3 45 км 10/10
[]
+23.1 +16.6 67 +28 +28 душно 1016.8 1013.1
03 20.08 С 3
{5}
50 км 10/0
[]
+22.5 +16.1 67 +27 +27 душно 1016.6 1012.9 0
04 20.08 С 2 55 км 10/10
[]
+22.6 +16.2 67 +27 +27 душно 1016.2 1012.5
05 20.08 С 1 35 км 10/10
[]
+22.4 +16.7 70 +27 +27 душно 1016.4 1012.7
06 20.08 СЗ 4
{6}
50 км н/о +22.5 +15.8 66 +27 +27 душно 1017.0 1013.3 +22.2 +25.9 0
07 20.08 СЗ 2 40 км н/о +23.3 +15.9 63 +28 +28 душно 1017.5 1013.8
08 20.08 З 2 30 км н/о +24.5 +16.2 60 +28 +28 душно 1017.7 1014.0
09 20.08 З 6
{7}
50 км 9/9 1000 м
[]
+24.3 +16.6 62 +28 +28 душно 1018.2 1014.5 0
10 20.08 З 3 40 км н/о +24.9 +16.9 61 +29 +29 душно 1018.3 1014.6
11 20.08 З 4 9000 м н/о +25.3 +16.4 58 +29 +29 душно 1018.5 1014.8
12 20.08 СЗ 7
{10}
50 км н/о +26.8 +15.5 50 +30 +30 душно 1018.6 1014.9 0
13 20.08 З 5 22 км 8/8
[]
+25.5 +15.8 55 +29 +30 душно 1019.2 1015.5
14 20.08 СЗ 4 35 км 9/9
[]
+23.9 +14.3 55 +26 +27 жарко 1019.2 1015.5
15 20.08 СЗ 6
{9}
50 км 9/0
[]
+23.0 +14.6 59 +27 +29 душно 1018.7 1015.0 0
16 20.08 СЗ 4
{9}
55 км 10/10
[]
+22.5 +14.9 62 +26 +28 жарко 1018.6 1014.9
17 20.08 СЗ 10
{15}
45 км 10/10
[]
+21.3 +14.9 67 +24 +24 комфорт 1019.0 1015.3
18 20.08 С 5
{12}
50 км 10/0
[]
+22.3 +14.4 61 +26 +26 жарко 1018.4 1014.7 +21.2 +26.9 0
19 20.08 СЗ 5 60 км н/о +21.0 +14.2 65 +24 +24 комфорт 1018.7 1014.9
20 20.08 СЗ 4 60 км н/о +20.4 +14.1 67 +23 +23 комфорт 1019.4 1015.6
21 20.08 СЗ 7
{15}
55 км н/о +19.2 +13.6 70 +20 +20 холодно 1019.2 1015.4 0
22 20.08 СЗ 3 60 км н/о +19.2 +13.8 71 +21 +21 комфорт 1019.0 1015.2
23 20.08 С 2 60 км н/о +18.9 +13.3 70 +20 +20 по сезону 1018.6 1014.8
00 21.08 С 5
{7}
60 км н/о +18.6 +13.2 71 +19 +19 прохладно 1018.4 1014.6 0
01 21.08 С 2 60 км н/о +18.3 +12.9 71 +19 +19 по сезону 1018.1 1014.3
02 21.08 С 2 60 км н/о +18.1 +12.5 70 +19 +19 по сезону 1018.0 1014.2
03 21.08 С 4
{7}
60 км н/о +17.8 +12.5 71 +18 +18 прохладно 1018.0 1014.2 0
04 21.08 С 3 60 км н/о +18.1 +12.5 70 +18 +18 по сезону 1017.8 1014.0
05 21.08 С 4 60 км н/о +17.5 +12.4 72 +17 +17 прохладно 1018.0 1014.2
06 21.08 С 5
{9}
35 км н/о +18.0 +12.4 70 +18 +18 по сезону 1018.5 1014.7 +17.4 +22.4 0
07 21.08 С 3 30 км н/о +20.1 +12.8 63 +22 +22 комфорт 1018.6 1014.8
08 21.08 С 2 40 км н/о +22.4 +13.2 56 +25 +25 комфорт 1018.6 1014.9
09 21.08 СЗ 5
{8}
40 км н/о +25.0 +13.9 50 +27 +27 жарко 1018.4 1014.7 0
10 21.08 З 2 40 км н/о +26.9 +14.0 45 +29 +29 жарко 1017.9 1014.2
11 21.08 З 4 35 км н/о +26.8 +15.5 50 +30 +30 душно 1017.6 1013.9
12 21.08 З 5
{9}
35 км н/о +28.2 +15.8 47 +31 +31 душно 1017.5 1013.8 0
13 21.08 З 3 30 км н/о +29.4 +16.2 45 +33 +33 душно 1017.2 1013.6
14 21.08 З 3 22 км н/о +29.6 +16.1 44 +33 +33 душно 1017.2 1013.6
15 21.08 З 4
{7}
35 км н/о +29.9 +15.6 42 +33 +33 душно 1017.0 1013.4 0
16 21.08 З 2 30 км н/о +29.2 +15.3 43 +32 +32 душно 1017.0 1013.4
17 21.08 СЗ 3 35 км н/о +29.3 +15.8 44 +32 +32 душно 1016.3 1012.7
18 21.08 СЗ 6
{8}
55 км н/о +27.8 +14.8 45 +30 +30 жарко 1017.1 1013.4 +18.1 +30.2 0
19 21.08 СЗ 3 55 км н/о +26.2 +15.3 51 +29 +29 жарко 1017.5 1013.8
20 21.08 С 1 60 км н/о +25.0 +13.2 48 +27 +27 жарко 1018.0 1014.3
21 21.08 СЗ 3
{5}
60 км н/о +24.6 +13.5 50 +27 +27 жарко 1018.0 1014.3 0
22 21.08 СЗ 2 60 км н/о +23.7 +14.1 55 +26 +26 жарко 1018.3 1014.6
23 21.08 С 2 60 км н/о +22.9 +14.2 58 +26 +26 жарко 1018.0 1014.3
00 22.08 СЗ 2
{4}
60 км 9/0
[]
+22.7 +14.0 58 +26 +26 жарко 1017.8 1014.1 0
01 22.08 В 1 50 км н/о +20.4 +13.4 64 +24 +24 комфорт 1017.9 1014.1
02 22.08 ЮВ 1 55 км 9/9
[]
+20.5 +13.7 65 +24 +24 комфорт 1017.8 1014.0
03 22.08 ЮВ 2
{3}
50 км 10/0
[]
+20.4 +13.6 65 +23 +23 комфорт 1017.8 1014.0 0
04 22.08 ЮВ 1 50 км 10/10
[]
+20.2 +14.1 68 +24 +24 комфорт 1018.0 1014.2
05 22.08 ЮВ 1 40 км н/о +19.4 +13.8 70 +22 +22 комфорт 1018.4 1014.6
06 22.08 С 3
{5}
35 км 8/0
[]
+20.6 +14.3 67 +24 +24 комфорт 1018.4 1014.6 +19.4 +27.7 0
07 22.08 С 1 50 км 9/9
[]
+21.9 +15.0 65 +25 +26 комфорт 1018.8 1015.1
08 22.08 С 1 40 км 10/10
[]
+23.5 +15.8 62 +27 +27 душно 1019.2 1015.5
09 22.08 СЗ 2
{4}
45 км н/о +24.7 +14.5 53 +27 +27 жарко 1019.2 1015.5 0
10 22.08 ЮЗ 1 30 км н/о +25.9 +16.7 57 +30 +30 душно 1019.2 1015.5
11 22.08 З 2 26 км н/о +26.5 +15.5 51 +30 +30 душно 1019.0 1015.3
12 22.08 ЮЗ 3
{9}
20 км 8/0
[]
+28.8 +16.7 48 +32 +40 душно 1018.9 1015.2 0
13 22.08 Ю 3 19 км 9/9
[]
+30.0 +14.9 40 +32 +34 жарко 1018.6 1015.0
14 22.08 Ю 3 28 км н/о +29.7 +15.8 43 +33 +33 душно 1018.6 1015.0
15 22.08 СЗ 3
{6}
40 км н/о +29.0 +15.5 44 +32 +32 душно 1018.7 1015.0 0
16 22.08 ЮЗ 2 19 км н/о +30.6 +17.0 44 +34 +34 очень
душно
1018.5 1014.9
17 22.08 В 5 17 км 10/10 1500 м
[]
+25.4 +17.1 60 +29 +29 душно 1019.6 1015.9
18 22.08 СВ 7
{14}
8000 м дождь 10/0 2000 м
[]
+21.8 +16.5 72 +26 +26 душно 1020.4 1016.7 +20.6 +30.8 1 0
19 22.08 ЮВ 2 17 км слаб. дождь 10/10
[]
+21.2 +17.4 79 +25 +25 комфорт 1019.6 1015.9 2
20 22.08 З 2 45 км 10/10
[]
+21.6 +17.8 79 +26 +26 душно 1019.6 1015.9 0.0
21 22.08 В 2
{6}
35 км н/о +20.6 +16.8 79 +25 +25 комфорт 1020.4 1016.6 2 0
22 22.08 В 1 35 км н/о +20.7 +16.1 75 +25 +25 комфорт 1020.2 1016.4
23 22.08 ЮВ 1 24 км н/о +19.1 +17.2 89 +22 +22 комфорт 1019.9 1016.1
00 23.08 ЮВ 1
{3}
24 км н/о +18.9 +17.0 89 +21 +21 комфорт 1019.8 1016.0 0
01 23.08 ЮВ 1 22 км н/о +18.1 +16.4 90 +19 +19 по сезону 1019.6 1015.8
02 23.08 ЮВ 2 20 км н/о +17.9 +16.6 92 +18 +18 прохладно 1019.4 1015.6
03 23.08 В 1
{5}
24 км н/о +17.8 +16.0 89 +19 +19 по сезону 1019.3 1015.5 0
04 23.08 штиль 0
{4}
19 км н/о +17.9 +16.2 90 +18 +18 по сезону 1019.0 1015.2
05 23.08 ЮВ 2 20 км н/о +17.7 +15.5 87 +18 +18 по сезону 1019.0 1015.2 0.2
06 23.08 Ю 1
{4}
24 км н/о +19.1 +16.7 86 +22 +22 комфорт 1019.3 1015.5 +17.0 +22.6 0.2 0
07 23.08 ЮВ 1 24 км н/о +21.5 +17.1 76 +25 +25 комфорт 1019.3 1015.6
08 23.08 СЗ 1 19 км н/о +22.6 +17.3 72 +27 +27 душно 1019.3 1015.6
09 23.08 З 2
{4}
19 км н/о +24.7 +17.2 63 +29 +29 душно 1019.5 1015.8 0
10 23.08 З 2 19 км н/о +26.4 +17.5 58 +31 +31 душно 1019.5 1015.8
11 23.08 З 2 25 км н/о +28.9 +16.8 48 +33 +33 очень
душно
1019.3 1015.6
12 23.08 Ю 7
{11}
24 км н/о +31.6 +16.0 39 +34 +34 душно 1018.9 1015.3 0
13 23.08 Ю 4 19 км н/о +31.3 +16.9 42 +35 +35 очень
душно
1018.7 1015.1
14 23.08 Ю 4 26 км н/о +30.6 +16.6 43 +34 +34 очень
душно
1018.3 1014.7
15 23.08 Ю 7
{13}
27 км н/о +29.8 +18.3 50 +35 +35 очень
душно
1018.1 1014.5 0
16 23.08 Ю 3 30 км н/о +28.6 +18.7 55 +34 +34 очень
душно
1018.3 1014.7
17 23.08 Ю 3 29 км н/о +28.0 +17.8 54 +32 +32 душно 1018.4 1014.7
18 23.08 Ю 3
{8}
50 км н/о +27.0 +16.9 54 +31 +31 душно 1018.6 1014.9 +19.1 +32.0 0
19 23.08 Ю 2 27 км н/о +25.6 +17.8 62 +30 +30 душно 1019.0 1015.3
20 23.08 ЮВ 1 22 км н/о +24.3 +18.7 71 +29 +29 душно 1019.3 1015.6
21 23.08 В 1
{3}
20 км н/о +24.3 +18.9 72 +29 +29 душно 1019.6 1015.9 0
22 23.08 ЮВ 1 16 км н/о +23.4 +18.9 76 +30 +30 очень
душно
1019.6 1015.9
23 23.08 В 1 15 км н/о +22.5 +18.7 79 +28 +28 душно 1019.6 1015.9
00 24.08 Ю 1
{3}
16 км н/о +21.6 +17.6 78 +26 +26 душно 1019.8 1016.1 0
01 24.08 Ю 1 14 км н/о +21.5 +17.7 79 +26 +26 душно 1019.6 1015.9
02 24.08 В 1 14 км н/о +20.7 +17.3 81 +26 +26 душно 1019.7 1015.9
03 24.08 ЮВ 2
{4}
13 км н/о +20.8 +17.4 81 +25 +25 комфорт 1019.4 1015.6 0
04 24.08 ЮВ 2 10 км н/о +19.4 +17.4 88 +22 +22 комфорт 1019.3 1015.5
05 24.08 В 1 11 км н/о +20.9 +17.9 83 +26 +26 душно 1019.6 1015.8
06 24.08 В 2
{7}
14 км н/о +22.5 +17.8 75 +28 +28 душно 1019.4 1015.7 +19.4 +27.0 0
07 24.08 СЗ 1 15 км н/о +24.4 +19.0 72 +29 +29 душно 1019.5 1015.8
08 24.08 З 1 13 км н/о +25.8 +19.2 67 +31 +31 очень
душно
1019.4 1015.7
09 24.08 З 3
{4}
14 км н/о +27.5 +17.9 56 +32 +32 очень
душно
1019.7 1016.0 0
10 24.08 З 1 14 км н/о +29.2 +17.1 48 +33 +33 очень
душно
1019.3 1015.7
11 24.08 З 1 16 км н/о +29.4 +16.9 47 +33 +33 душно 1019.0 1015.4
12 24.08 З 3
{4}
16 км н/о +30.2 +16.6 44 +34 +34 очень
душно
1018.7 1015.1 0
13 24.08 З 3 18 км н/о +31.1 +16.7 42 +34 +34 душно 1018.4 1014.8
14 24.08 З 3 17 км н/о +30.6 +16.6 43 +34 +34 очень
душно
1018.1 1014.5
15 24.08 З 7
{9}
17 км н/о +30.0 +17.1 46 +34 +34 очень
душно
1017.7 1014.1 0
16 24.08 З 3 17 км н/о +29.5 +17.0 47 +33 +33 душно 1017.7 1014.1
17 24.08 З 3 28 км н/о +28.5 +17.4 51 +33 +33 очень
душно
1017.3 1013.7

 

Местоположение метеостанции Мариньян (Франция): широта 43.45 долгота 5.23 высота над уровнем моря 32 м.

В архиве по умолчанию представлена погода в Мариньяне за последнюю неделю. Архивные данные за месяц целиком и за предыдущие месяцы, начиная с января 2011 года, Вы можете получить, выбрав интересующий диапазон дат из раскрывающегося списка и нажав кнопку "Ввод!".


*Определитесь, кто Вы:
робот инопланетянин человек

Внимание! Время в таблицах - всемирное. Для получения местного времени необходимо прибавить поправку, которая равна 1 ч.

Смотрите также архив погоды в соседних городах и на ближайших метеорологических станциях:

Погода в Салон-де-Провансе (Франция) (20 км)
Погода на Ла Куроне (Франция) (20 км)
Погода в Истре (Франция) (26 км)
Погода в Ла-Сьоте (Франция) (41 км)
Погода в Авиньон (Франция) (58 км)
Погода в Тулоне (Франция) (69 км)
Погода на Мысе Кере (Франция) (70 км)
Погода в Карпентрасе (Франция) (72 км)
Погода в Ниме (Франция) (73 км)
Погода в Ним аэропорту (Франция) (82 км)

Пояснения к столбцам:

Ветер - указаны скорость ветра в м/с - средняя за 10 мин, порывы в срок и между сроками (в фигурных скобках) и направление, откуда дует ветер: С - северный, СВ - северо-восточный, В - восточный, ЮВ - юго-восточный, Ю - южный, ЮЗ - юго-западный, З - западный, СЗ - северо-западный.
Видимость - горизонтальная дальность видимости в метрах или километрах. При видимости от 1 до 10 км при отсутствии осадков обычно наблюдается дымка, при ухудшении видимости до 1 км и менее - туман. В сухую погоду видимость может ухудшаться дымом, пылью или мглою.
Явления - указаны атмосферные явления, наблюдавшиеся в срок или в последний час перед сроком; фигурными скобками обозначены явления, наблюдавшиеся между сроками (за 1-3 часа до срока); квадратными скобками обозначены град или гололедные отложения с указанием их диаметра в мм.
Облачность - указаны через наклонную черту общая и нижняя облачность в баллах и высота нижней границы облаков в метрах; квадратными скобками обозначены формы облаков: Ci - перистые, Cs - перисто-слоистые, Cc - перисто-кучевые, Ac - высококучевые, As - высокослоистые, Sc - слоисто-кучевые, Ns - слоисто-дождевые, Cu - кучевые, Cb - кучево-дождевые. Подробнее классификацию облаков см. в Атласе облаков (PDF).
T - Температура воздуха - температура, измеренная на высоте 2 м над землей.
Td - Температура точки росы - температура, при понижении до которой содержащийся в воздухе водяной пар достигнет насыщения.
f - Относительная влажность воздуха - влажноcть воздуха, измеренная на высоте 2 м над землей.
Te - Эффективная температура - температура, которую ощущает одетый по сезону человек в тени. Характеристика душности погоды. При расчете учитывается влияние влажности воздуха и скорости ветра на теплоощущения человека.
Tes - Эффективная температура на солнце - температура, которую ощущает человек, с поправкой на солнечный нагрев. Характеристика знойности погоды. Зависит от высоты солнца над горизонтом, облачности и скорости ветра. Ночью, в пасмурную погоду, а также при ветре 12 м/с и более поправка равна нулю.
P - Атмосферное давление - приведенное к уровню моря атмосферное давление.
Po - Атмосферное давление - измеренное на уровне метеостанции атмосферное давление.
Tmin - Минимальная температура - минимум температуры воздуха на высоте 2 м над землей.
Tmax - Максимальная температура - максимум температуры воздуха на высоте 2 м над землей.
R - Количество осадков - Количество выпавших осадков за период времени, мм. При наведении курсора мыши на число - период времени, за который выпало указанное количество осадков.
R24 - Количество осадков - Количество выпавших осадков за 24 часа, мм.
S - Снежный покров - Высота снежного покрова, см. При наведении курсора мыши на число - состояние снежного покрова и степень покрытия местности в баллах.